一网星座-0202星 (ONEWEB-0202 )

导读

ONEWEB-0202是英国OneWeb低轨宽带星座中的一颗卫星,于2021年4月25日发射入轨。它单颗重约147.5公斤,运行在高度约1200公里的近地轨道,配备Ku和Ka波段通信天线,采用氙等离子体推力器,设计寿命超5年。作为OneWeb全球互联组网的组成部分,它面向航空、海事、偏远地区提供宽带互联网接入服务,助力实现全球无缝网络覆盖。

基本信息
目录编号:
48224
目录名称:
ONEWEB-0202
国际标识:
2021-031Q
轨道中心:
EARTH
卫星名称:
一网星座-0202星
卫星全名:
一网星座-0202星 (ONEWEB-0202 )
卫星状态:
在轨 (已飞行1876 天)
发射日期:
2021-04-25 UTC
国别 :
英国 (GB)
星等 :
--
轨道信息
数据来源 国际轨道数据 AOE轨道数据
星历时间 2026-06-14T04:31:28+0800
13小时前
查看轨道信息
2026-06-09T12:00:00+0800
5天前
查看轨道信息
半长轴 7583.928km 7583.937km
偏心率 0.0001748 0.0001697
轨道倾角 87.896° 87.896°
近地点辐角 121.524° 131.963°
升交点赤经 290.373° 291.308°
平近点角 238.606° 13.754°
近地点 1204.465km 1204.513km
远地点 1207.117km 1207.087km
周期 109.547分钟 109.547分钟
每日圈数 13.145027 13.145005
详细信息
平衡模式:
三轴稳定
覆盖范围:
全球
运营商:
一网卫星公司
运营商所在国:
英国
制造商(研发单位):
一网卫星公司
制造商所在国:
英国
使用方式:
暂无
卫星简介
OneWeb卫星网络由648颗重约125公斤的微型卫星组成,运行在1200公里的轨道上。 每颗卫星都能够提供至少每秒8千兆位的吞吐量,以使用其高吞吐量的Ku频段有效载荷为家庭和移动平台提供互联网接入。该卫星仍在工作。
2D轨道图
3D轨道图
轨道高度分析图
轨道倾角分析图
轨道综合分析图
查看轨道综合分析图